Regional Weather Roundup
Issued by NWS

Home | Current Version | Previous Version | Graphics & Text | Print | Product List | Glossary On
Versions: 1 2 3 4 5 6 7 8 9 10 11 12 13 14 15 16 17 18 19 20 21 22 23 24 25 26 27 28 29 30 31 32 33 34 35 36 37 38 39 40 41 42 43 44 45 46 47 48 49 50
000
ASUS45 KBOU 281507
RWRCO

WEATHER ROUNDUP FOR COLORADO
NATIONAL WEATHER SERVICE DENVER/BOULDER CO
900 AM MDT FRI AUG 28 2015

NOTE: "FAIR" INDICATES FEW OR NO CLOUDS BELOW 12000 FEET WITH NO
SIGNIFICANT WEATHER AND/OR OBSTRUCTIONS TO VISIBILITY.

COZ001>005-013-030-031-281600-
...NORTHWEST COLORADO...

CITY           SKY/WX    TMP DP  RH WIND       PRES   REMARKS
CRAIG          SUNNY     56  51  84 CALM      30.39R
HAYDEN         NOT AVBL
MEEKER         SUNNY     56  48  74 CALM      30.39S
MOUNT WERNER   NOT AVBL
STEAMBOAT SPGS SUNNY     50  47  90 CALM      30.42S
WALDEN         SUNNY     50  45  81 CALM      30.46S
$$

COZ006>008-011-281600-
...WEST CENTRAL VALLEYS...

CITY           SKY/WX    TMP DP  RH WIND       PRES   REMARKS
GRAND JUNCTION SUNNY     64  54  69 S9        30.29R
MONTROSE       SUNNY     60  51  72 W5        30.36R
EAGLE          SUNNY     57  48  72 CALM      30.45S
RIFLE          SUNNY     59  51  75 NE3       30.37R
DELTA          SUNNY     64  52  64 E8        30.34R
NUCLA          SUNNY     64  45  48 CALM      30.37R
$$

COZ017>023-064>068-281600-
...SOUTHWEST COLORADO...

CITY           SKY/WX    TMP DP  RH WIND       PRES   REMARKS
DURANGO        SUNNY     60  47  61 CALM      30.33R
CORTEZ         SUNNY     64  49  57 CALM      30.29S
PAGOSA SPRINGS SUNNY     60  45  57 CALM      30.39S
TELLURIDE      SUNNY     54  42  63 CALM      30.53S
WOLF CREEK PAS SUNNY     50  34  53 NE14      30.69S
$$

COZ009-010-012-014-032>034-037-058>063-281600-
...CENTRAL COLORADO...

CITY           SKY/WX    TMP DP  RH WIND       PRES   REMARKS
ASPEN          SUNNY     54  45  71 CALM      30.47R
BUENA VISTA    SUNNY     62  42  48 E5        30.43F
COPPER MTN     SUNNY     46  37  71 W13       30.69S
BERTHOUD PASS  CLOUDY    37  27  65 NW29G37   30.70R HAZE
COTTONWOOD PAS SUNNY     55  37  50 SE6       30.54S
GUNNISON       SUNNY     52  45  76 CALM      30.50S
KREMMLING      PTSUNNY   50  45  81 CALM      30.48S FOG
LEADVILLE      SUNNY     51  43  74 N8        30.56R
MONARCH PASS   SUNNY     43  34  70 W6        30.78R
SALIDA         SUNNY     60  42  52 CALM      30.49F
SUNLIGHT       SUNNY     52  37  58 N5        30.66S
WILKERSON PASS SUNNY     50  32  50 N9G16     30.65R
$$

COZ069>075-281600-
...SAN LUIS VALLEY/SANGRE DE CRISTO MOUNTAINS...

CITY           SKY/WX    TMP DP  RH WIND       PRES   REMARKS
ALAMOSA        SUNNY     57  49  74 S3        30.39R
LA VETA PASS   SUNNY     54  43  66 CALM      30.54R
SAGUACHE       SUNNY     61  43  51 NW17      30.41S
$$

COZ035-036-038>040-281600-
...NORTHERN COLORADO FRONT RANGE...

CITY           SKY/WX    TMP DP  RH WIND       PRES   REMARKS
DENVER INTL AP MOSUNNY   70  52  52 SW7       30.24S
DMNS CITY PARK   N/A     70  52  51 W1G10     30.25R
AURORA         MOSUNNY   68  53  59 SW6       30.27R
FRONT RANGE AP MOSUNNY   70  50  49 W6        30.26R
ERIE MUNI ARPT MOSUNNY   70  54  56 CALM      30.23R
BOULDER MUN AP PTSUNNY   70  46  43 CALM      30.23R
CENTENNIAL     MOSUNNY   67  52  58 W7        30.27R
BROOMFIELD     MOSUNNY   72  48  43 CALM      30.27R
FORT COLLINS   MOSUNNY   66  52  59 CALM      30.23R
LONGMONT       CLOUDY    70  53  56 CALM      30.24R
$$

COZ041-046-047-076>085-087-088-281600-
...PIKES PEAK/PALMER DIVIDE AND SOUTHERN FOOTHILLS...

CITY           SKY/WX    TMP DP  RH WIND       PRES   REMARKS
COLO. SPRINGS  MOSUNNY   70  51  51 N9        30.29R
A. F. ACADEMY  SUNNY     66  52  61 N13       30.30S
ELLICOTT       SUNNY    N/A N/A N/A NE14      30.27R
FALCON         SUNNY     66  51  58 MISG      30.34R
FORT CARSON    SUNNY     66  55  65 VRB1      30.27R
LIMON          SUNNY     69  52  54 N14       30.23R
MONUMENT HILL  SUNNY     61  52  72 NW7       30.35R
TRINIDAD       SUNNY     69  55  60 W7        30.25R
$$

COZ042>045-048>051-090-091-281600-
...NORTHEAST COLORADO...

CITY           SKY/WX    TMP DP  RH WIND       PRES   REMARKS
GREELEY ARPT   MOSUNNY   68  52  56 NW6       30.21S
AKRON          MOSUNNY   68  57  68 W13       30.16S
BURLINGTON     MOSUNNY   74  55  51 NW13      30.14R
WRAY           SUNNY     77  52  40 NW14G22   30.08S
STERLING       MOSUNNY   72  55  56 N8        30.11S
HOLYOKE        SUNNY     79  54  41 NW14G20   30.08S
FORT MORGAN    MOSUNNY   67  55  65 W9        30.18R
$$

COZ086-089-092>099-281600-
...SOUTHEAST COLORADO...

CITY           SKY/WX    TMP DP  RH WIND       PRES   REMARKS
PUEBLO         SUNNY     74  53  48 NW9       30.19R
LA JUNTA       SUNNY     72  58  61 W5        30.16R
LAMAR          SUNNY     73  61  65 W10       30.10R
SPRINGFIELD      N/A     75  58  55 N7        30.14S
$$



USA.gov is the U.S. government's official web portal to all federal, state and local government web resources and services.